TimeEST,TemperatureF,Dew PointF,Humidity,Sea Level PressureIn,VisibilityMPH,Wind Direction,Wind SpeedMPH,Gust SpeedMPH,PrecipitationIn,Events,Conditions,WindDirDegrees,DateUTC
12:51 AM,17.1,1.0,50,30.40,10.0,WNW,17.3,-,N/A,,Clear,300,2013-01-25 05:51:00
1:51 AM,16.0,-0.0,49,30.42,10.0,WNW,15.0,25.3,N/A,,Clear,300,2013-01-25 06:51:00
2:51 AM,15.1,-0.0,51,30.41,10.0,WNW,15.0,24.2,N/A,,Partly Cloudy,300,2013-01-25 07:51:00
3:51 AM,15.1,1.0,54,30.41,10.0,WNW,11.5,-,N/A,,Partly Cloudy,290,2013-01-25 08:51:00
4:51 AM,15.1,1.0,54,30.41,10.0,WNW,16.1,-,N/A,,Scattered Clouds,300,2013-01-25 09:51:00
5:51 AM,15.1,1.9,56,30.41,10.0,WNW,17.3,23.0,N/A,,Mostly Cloudy,300,2013-01-25 10:51:00
6:51 AM,15.1,1.9,56,30.42,10.0,West,11.5,-,N/A,,Mostly Cloudy,280,2013-01-25 11:51:00
7:51 AM,16.0,3.0,57,30.39,10.0,NW,15.0,-,N/A,,Overcast,320,2013-01-25 12:51:00
8:51 AM,16.0,3.0,57,30.40,10.0,NW,10.4,-,N/A,,Overcast,320,2013-01-25 13:51:00
9:51 AM,17.1,1.9,52,30.42,10.0,Variable,5.8,-,N/A,,Overcast,0,2013-01-25 14:51:00
10:51 AM,19.0,1.9,47,30.40,10.0,Calm,Calm,-,N/A,,Overcast,0,2013-01-25 15:51:00
11:51 AM,21.0,1.9,44,30.33,10.0,Calm,Calm,-,N/A,,Overcast,0,2013-01-25 16:51:00
12:51 PM,21.0,1.9,44,30.30,10.0,East,3.5,-,N/A,,Overcast,80,2013-01-25 17:51:00
1:51 PM,21.9,3.0,44,30.25,10.0,Calm,Calm,-,N/A,,Overcast,0,2013-01-25 18:51:00
2:51 PM,23.0,3.9,44,30.23,10.0,NNE,3.5,-,N/A,,Overcast,20,2013-01-25 19:51:00
3:51 PM,24.1,-0.0,35,30.21,10.0,SSW,5.8,-,N/A,,Overcast,210,2013-01-25 20:51:00
4:51 PM,24.1,1.9,38,30.19,10.0,SSW,6.9,-,N/A,,Overcast,210,2013-01-25 21:51:00
5:09 PM,24.8,3.2,40,30.19,4.0,SSW,9.2,-,0.00,Snow,Light Snow,200,2013-01-25 22:09:00
5:36 PM,21.2,15.8,80,30.18,1.5,SW,9.2,-,0.01,Snow,Light Snow,220,2013-01-25 22:36:00
5:51 PM,19.9,16.0,85,30.17,1.5,SSW,4.6,-,0.01,Snow,Light Snow,210,2013-01-25 22:51:00
5:58 PM,19.4,15.8,86,30.16,1.2,SSW,4.6,-,0.00,Snow,Light Snow,210,2013-01-25 22:58:00
6:07 PM,21.2,15.8,80,30.15,1.2,SW,3.5,-,0.01,Snow,Light Snow,230,2013-01-25 23:07:00
6:16 PM,21.2,15.8,80,30.14,1.5,SW,5.8,-,0.01,Snow,Light Snow,230,2013-01-25 23:16:00
6:51 PM,21.0,15.1,78,30.13,1.5,SW,5.8,-,0.01,Snow,Light Snow,220,2013-01-25 23:51:00
7:04 PM,21.2,15.8,80,30.13,1.5,SW,5.8,-,0.01,Snow,Light Snow,220,2013-01-26 00:04:00
7:18 PM,21.2,15.8,80,30.14,1.5,WSW,6.9,-,0.01,Snow,Light Snow,240,2013-01-26 00:18:00
7:51 PM,21.0,16.0,81,30.12,1.5,SW,8.1,-,0.01,Snow,Light Snow,220,2013-01-26 00:51:00
8:11 PM,21.2,17.6,86,30.12,1.2,WSW,9.2,-,0.01,Snow,Light Snow,250,2013-01-26 01:11:00
8:19 PM,21.2,15.8,80,30.12,1.5,WSW,9.2,-,0.01,Snow,Light Snow,250,2013-01-26 01:19:00
8:51 PM,21.0,16.0,81,30.11,1.5,West,6.9,-,0.01,Snow,Light Snow,270,2013-01-26 01:51:00
9:36 PM,21.2,12.2,68,30.09,6.0,SW,8.1,-,0.00,,Haze,230,2013-01-26 02:36:00
9:51 PM,21.0,12.9,71,30.09,6.0,SW,6.9,-,0.00,,Haze,230,2013-01-26 02:51:00
10:01 PM,21.2,12.2,68,30.08,9.0,West,6.9,-,N/A,,Scattered Clouds,260,2013-01-26 03:01:00
10:35 PM,19.4,12.2,74,30.07,7.0,West,10.4,-,N/A,,Scattered Clouds,270,2013-01-26 03:35:00
10:51 PM,19.9,12.0,71,30.07,10.0,West,8.1,-,N/A,,Scattered Clouds,270,2013-01-26 03:51:00
11:51 PM,19.9,12.9,74,30.07,10.0,NW,11.5,-,N/A,,Mostly Cloudy,310,2013-01-26 04:51:00